Simultaneous Nadir Overpasses (SNOs) Predictions

Prediction of SNOs between METOP-B and TERRA Satellite Orbit:

Table of predicted SNOs for the next 14.0 days since TLE Epoch: 3/9/2019
Index Date (METOP-B) Time (METOP-B) Lat,Lon (METOP-B) SZA (METOP-B ) Date (TERRA) Time (TERRA) Lat,Lon (TERRA) SZA (TERRA ) Distance(km) Time Diff (sec)
1 03/10/2019 05:25:58 81.29, 145.41 87.93 03/10/2019 05:26:49 81.30, 145.52 87.97 2.12 51
2 03/10/2019 06:16:38 -81.29, -46.99 92.05 03/10/2019 06:16:16 -81.30, -46.86 92.05 2.28 22
3 03/13/2019 01:00:22 81.29,-148.20 86.85 03/13/2019 01:01:03 81.29,-148.22 86.87 0.36 41
4 03/13/2019 01:51:02 -81.29, 19.40 93.13 03/13/2019 01:50:30 -81.29, 19.42 93.15 0.49 32
5 03/15/2019 20:34:45 81.29, -81.83 85.77 03/15/2019 20:35:14 81.28, -81.93 85.76 2.05 29
6 03/15/2019 21:25:24 -81.30, 86.17 94.18 03/15/2019 21:24:40 -81.30, 86.10 94.20 1.30 44
7 03/18/2019 16:09:08 81.29, -15.08 84.72 03/18/2019 16:09:23 81.29, -15.24 84.71 2.75 15
8 03/18/2019 16:59:48 -81.30, 152.53 95.26 03/18/2019 16:58:50 -81.30, 152.43 95.30 1.84 58
9 03/21/2019 10:52:52 -81.29,-116.41 96.40 03/21/2019 10:54:05 -81.29,-116.45 96.37 0.81 73
10 03/21/2019 11:43:32 81.29, 51.26 83.63 03/21/2019 11:43:31 81.29, 51.10 83.61 2.84 1




NCC Satellite Simultaneous Nadir Overpasses (SNOs) Prediction Service
